Index of /20260503/WXO-DD/model_rdps/10km/12/006
Name Last modified Size Description
Parent Directory -
20260503T12Z_MSC_RDPS_AbsoluteVorticity_IsbL-0250_RLatLon0.09_PT006H.grib2 2026-05-03 14:54 618K
20260503T12Z_MSC_RDPS_AbsoluteVorticity_IsbL-0500_RLatLon0.09_PT006H.grib2 2026-05-03 14:54 691K
20260503T12Z_MSC_RDPS_AbsoluteVorticity_IsbL-0700_RLatLon0.09_PT006H.grib2 2026-05-03 14:54 626K
20260503T12Z_MSC_RDPS_AbsoluteVorticity_IsbL-0850_RLatLon0.09_PT006H.grib2 2026-05-03 14:54 794K
20260503T12Z_MSC_RDPS_AirTemp_AGL-120m_RLatLon0.09_PT006H.grib2 2026-05-03 14:54 395K
20260503T12Z_MSC_RDPS_AirTemp_AGL-2m_RLatLon0.09_PT006H.grib2 2026-05-03 14:54 632K
20260503T12Z_MSC_RDPS_AirTemp_AGL-40m_RLatLon0.09_PT006H.grib2 2026-05-03 14:54 404K
20260503T12Z_MSC_RDPS_AirTemp_AGL-80m_RLatLon0.09_PT006H.grib2 2026-05-03 14:54 399K
20260503T12Z_MSC_RDPS_AirTemp_IsbL-0001_RLatLon0.09_PT006H.grib2 2026-05-03 14:54 321K
20260503T12Z_MSC_RDPS_AirTemp_IsbL-0005_RLatLon0.09_PT006H.grib2 2026-05-03 14:54 277K
20260503T12Z_MSC_RDPS_AirTemp_IsbL-0010_RLatLon0.09_PT006H.grib2 2026-05-03 14:54 287K
20260503T12Z_MSC_RDPS_AirTemp_IsbL-0020_RLatLon0.09_PT006H.grib2 2026-05-03 14:54 304K
20260503T12Z_MSC_RDPS_AirTemp_IsbL-0030_RLatLon0.09_PT006H.grib2 2026-05-03 14:54 325K
20260503T12Z_MSC_RDPS_AirTemp_IsbL-0050_RLatLon0.09_PT006H.grib2 2026-05-03 14:54 305K
20260503T12Z_MSC_RDPS_AirTemp_IsbL-0100_RLatLon0.09_PT006H.grib2 2026-05-03 14:54 383K
20260503T12Z_MSC_RDPS_AirTemp_IsbL-0150_RLatLon0.09_PT006H.grib2 2026-05-03 14:54 412K
20260503T12Z_MSC_RDPS_AirTemp_IsbL-0175_RLatLon0.09_PT006H.grib2 2026-05-03 14:54 405K
20260503T12Z_MSC_RDPS_AirTemp_IsbL-0200_RLatLon0.09_PT006H.grib2 2026-05-03 14:54 415K
20260503T12Z_MSC_RDPS_AirTemp_IsbL-0225_RLatLon0.09_PT006H.grib2 2026-05-03 14:54 419K
20260503T12Z_MSC_RDPS_AirTemp_IsbL-0250_RLatLon0.09_PT006H.grib2 2026-05-03 14:54 425K
20260503T12Z_MSC_RDPS_AirTemp_IsbL-0275_RLatLon0.09_PT006H.grib2 2026-05-03 14:54 405K
20260503T12Z_MSC_RDPS_AirTemp_IsbL-0300_RLatLon0.09_PT006H.grib2 2026-05-03 14:54 409K
20260503T12Z_MSC_RDPS_AirTemp_IsbL-0350_RLatLon0.09_PT006H.grib2 2026-05-03 14:54 424K
20260503T12Z_MSC_RDPS_AirTemp_IsbL-0400_RLatLon0.09_PT006H.grib2 2026-05-03 14:54 426K
20260503T12Z_MSC_RDPS_AirTemp_IsbL-0450_RLatLon0.09_PT006H.grib2 2026-05-03 14:54 434K
20260503T12Z_MSC_RDPS_AirTemp_IsbL-0500_RLatLon0.09_PT006H.grib2 2026-05-03 14:54 412K
20260503T12Z_MSC_RDPS_AirTemp_IsbL-0550_RLatLon0.09_PT006H.grib2 2026-05-03 14:54 429K
20260503T12Z_MSC_RDPS_AirTemp_IsbL-0600_RLatLon0.09_PT006H.grib2 2026-05-03 14:54 446K
20260503T12Z_MSC_RDPS_AirTemp_IsbL-0650_RLatLon0.09_PT006H.grib2 2026-05-03 14:54 463K
20260503T12Z_MSC_RDPS_AirTemp_IsbL-0700_RLatLon0.09_PT006H.grib2 2026-05-03 14:54 489K
20260503T12Z_MSC_RDPS_AirTemp_IsbL-0750_RLatLon0.09_PT006H.grib2 2026-05-03 14:54 416K
20260503T12Z_MSC_RDPS_AirTemp_IsbL-0800_RLatLon0.09_PT006H.grib2 2026-05-03 14:54 463K
20260503T12Z_MSC_RDPS_AirTemp_IsbL-0850_RLatLon0.09_PT006H.grib2 2026-05-03 14:54 511K
20260503T12Z_MSC_RDPS_AirTemp_IsbL-0875_RLatLon0.09_PT006H.grib2 2026-05-03 14:54 526K
20260503T12Z_MSC_RDPS_AirTemp_IsbL-0900_RLatLon0.09_PT006H.grib2 2026-05-03 14:54 532K
20260503T12Z_MSC_RDPS_AirTemp_IsbL-0925_RLatLon0.09_PT006H.grib2 2026-05-03 14:54 528K
20260503T12Z_MSC_RDPS_AirTemp_IsbL-0950_RLatLon0.09_PT006H.grib2 2026-05-03 14:54 531K
20260503T12Z_MSC_RDPS_AirTemp_IsbL-0970_RLatLon0.09_PT006H.grib2 2026-05-03 14:54 526K
20260503T12Z_MSC_RDPS_AirTemp_IsbL-0985_RLatLon0.09_PT006H.grib2 2026-05-03 14:54 518K
20260503T12Z_MSC_RDPS_AirTemp_IsbL-1000_RLatLon0.09_PT006H.grib2 2026-05-03 14:54 503K
20260503T12Z_MSC_RDPS_AirTemp_IsbL-1015_RLatLon0.09_PT006H.grib2 2026-05-03 14:54 501K
20260503T12Z_MSC_RDPS_Albedo_Sfc_RLatLon0.09_PT006H.grib2 2026-05-03 14:54 156K
20260503T12Z_MSC_RDPS_CAPE_Sfc_RLatLon0.09_PT006H.grib2 2026-05-03 14:54 1.7M
20260503T12Z_MSC_RDPS_CIN_Sfc_RLatLon0.09_PT006H.grib2 2026-05-03 14:54 1.2M
20260503T12Z_MSC_RDPS_CloudWater_EAtm_RLatLon0.09_PT006H.grib2 2026-05-03 14:54 219K
20260503T12Z_MSC_RDPS_ConvectivePrecip-Accum_Sfc_RLatLon0.09_PT006H.grib2 2026-05-03 14:54 503K
20260503T12Z_MSC_RDPS_DewPointDepression_AGL-2m_RLatLon0.09_PT006H.grib2 2026-05-03 14:54 426K
20260503T12Z_MSC_RDPS_DewPointDepression_IsbL-0001_RLatLon0.09_PT006H.grib2 2026-05-03 14:54 193
20260503T12Z_MSC_RDPS_DewPointDepression_IsbL-0005_RLatLon0.09_PT006H.grib2 2026-05-03 14:54 193
20260503T12Z_MSC_RDPS_DewPointDepression_IsbL-0010_RLatLon0.09_PT006H.grib2 2026-05-03 14:54 193
20260503T12Z_MSC_RDPS_DewPointDepression_IsbL-0020_RLatLon0.09_PT006H.grib2 2026-05-03 14:54 193
20260503T12Z_MSC_RDPS_DewPointDepression_IsbL-0030_RLatLon0.09_PT006H.grib2 2026-05-03 14:54 193
20260503T12Z_MSC_RDPS_DewPointDepression_IsbL-0050_RLatLon0.09_PT006H.grib2 2026-05-03 14:54 102K
20260503T12Z_MSC_RDPS_DewPointDepression_IsbL-0100_RLatLon0.09_PT006H.grib2 2026-05-03 14:54 116K
20260503T12Z_MSC_RDPS_DewPointDepression_IsbL-0150_RLatLon0.09_PT006H.grib2 2026-05-03 14:54 150K
20260503T12Z_MSC_RDPS_DewPointDepression_IsbL-0175_RLatLon0.09_PT006H.grib2 2026-05-03 14:54 188K
20260503T12Z_MSC_RDPS_DewPointDepression_IsbL-0200_RLatLon0.09_PT006H.grib2 2026-05-03 14:54 226K
20260503T12Z_MSC_RDPS_DewPointDepression_IsbL-0225_RLatLon0.09_PT006H.grib2 2026-05-03 14:54 265K
20260503T12Z_MSC_RDPS_DewPointDepression_IsbL-0250_RLatLon0.09_PT006H.grib2 2026-05-03 14:54 299K
20260503T12Z_MSC_RDPS_DewPointDepression_IsbL-0275_RLatLon0.09_PT006H.grib2 2026-05-03 14:54 309K
20260503T12Z_MSC_RDPS_DewPointDepression_IsbL-0300_RLatLon0.09_PT006H.grib2 2026-05-03 14:54 326K
20260503T12Z_MSC_RDPS_DewPointDepression_IsbL-0350_RLatLon0.09_PT006H.grib2 2026-05-03 14:54 334K
20260503T12Z_MSC_RDPS_DewPointDepression_IsbL-0400_RLatLon0.09_PT006H.grib2 2026-05-03 14:54 338K
20260503T12Z_MSC_RDPS_DewPointDepression_IsbL-0450_RLatLon0.09_PT006H.grib2 2026-05-03 14:54 341K
20260503T12Z_MSC_RDPS_DewPointDepression_IsbL-0500_RLatLon0.09_PT006H.grib2 2026-05-03 14:54 345K
20260503T12Z_MSC_RDPS_DewPointDepression_IsbL-0550_RLatLon0.09_PT006H.grib2 2026-05-03 14:54 356K
20260503T12Z_MSC_RDPS_DewPointDepression_IsbL-0600_RLatLon0.09_PT006H.grib2 2026-05-03 14:54 365K
20260503T12Z_MSC_RDPS_DewPointDepression_IsbL-0650_RLatLon0.09_PT006H.grib2 2026-05-03 14:54 374K
20260503T12Z_MSC_RDPS_DewPointDepression_IsbL-0700_RLatLon0.09_PT006H.grib2 2026-05-03 14:54 388K
20260503T12Z_MSC_RDPS_DewPointDepression_IsbL-0750_RLatLon0.09_PT006H.grib2 2026-05-03 14:54 412K
20260503T12Z_MSC_RDPS_DewPointDepression_IsbL-0800_RLatLon0.09_PT006H.grib2 2026-05-03 14:54 450K
20260503T12Z_MSC_RDPS_DewPointDepression_IsbL-0850_RLatLon0.09_PT006H.grib2 2026-05-03 14:54 478K
20260503T12Z_MSC_RDPS_DewPointDepression_IsbL-0875_RLatLon0.09_PT006H.grib2 2026-05-03 14:54 475K
20260503T12Z_MSC_RDPS_DewPointDepression_IsbL-0900_RLatLon0.09_PT006H.grib2 2026-05-03 14:54 465K
20260503T12Z_MSC_RDPS_DewPointDepression_IsbL-0925_RLatLon0.09_PT006H.grib2 2026-05-03 14:54 454K
20260503T12Z_MSC_RDPS_DewPointDepression_IsbL-0950_RLatLon0.09_PT006H.grib2 2026-05-03 14:54 451K
20260503T12Z_MSC_RDPS_DewPointDepression_IsbL-0970_RLatLon0.09_PT006H.grib2 2026-05-03 14:54 445K
20260503T12Z_MSC_RDPS_DewPointDepression_IsbL-0985_RLatLon0.09_PT006H.grib2 2026-05-03 14:54 441K
20260503T12Z_MSC_RDPS_DewPointDepression_IsbL-1000_RLatLon0.09_PT006H.grib2 2026-05-03 14:54 436K
20260503T12Z_MSC_RDPS_DewPointDepression_IsbL-1015_RLatLon0.09_PT006H.grib2 2026-05-03 14:54 429K
20260503T12Z_MSC_RDPS_DewPoint_AGL-2m_RLatLon0.09_PT006H.grib2 2026-05-03 14:54 316K
20260503T12Z_MSC_RDPS_DownwardLongwaveRadiationFlux-Accum_Sfc_RLatLon0.09_PT006H.grib2 2026-05-03 14:54 498K
20260503T12Z_MSC_RDPS_DownwardShortwaveRadiationFlux-Accum_NTAtm_RLatLon0.09_PT006H.grib2 2026-05-03 14:54 109K
20260503T12Z_MSC_RDPS_DownwardShortwaveRadiationFlux-Accum_Sfc_RLatLon0.09_PT006H.grib2 2026-05-03 14:54 581K
20260503T12Z_MSC_RDPS_FreezingRain-Accum1h_Sfc_RLatLon0.09_PT006H.grib2 2026-05-03 14:54 11K
20260503T12Z_MSC_RDPS_FreezingRain-Accum3h_Sfc_RLatLon0.09_PT006H.grib2 2026-05-03 14:54 17K
20260503T12Z_MSC_RDPS_FreezingRain-Accum6h_Sfc_RLatLon0.09_PT006H.grib2 2026-05-03 14:54 40K
20260503T12Z_MSC_RDPS_FreezingRain-Accum_Sfc_RLatLon0.09_PT006H.grib2 2026-05-03 14:54 43K
20260503T12Z_MSC_RDPS_GeopotentialHeight_IsbL-0001_RLatLon0.09_PT006H.grib2 2026-05-03 14:54 322K
20260503T12Z_MSC_RDPS_GeopotentialHeight_IsbL-0005_RLatLon0.09_PT006H.grib2 2026-05-03 14:54 304K
20260503T12Z_MSC_RDPS_GeopotentialHeight_IsbL-0010_RLatLon0.09_PT006H.grib2 2026-05-03 14:54 305K
20260503T12Z_MSC_RDPS_GeopotentialHeight_IsbL-0020_RLatLon0.09_PT006H.grib2 2026-05-03 14:54 400K
20260503T12Z_MSC_RDPS_GeopotentialHeight_IsbL-0030_RLatLon0.09_PT006H.grib2 2026-05-03 14:54 403K
20260503T12Z_MSC_RDPS_GeopotentialHeight_IsbL-0050_RLatLon0.09_PT006H.grib2 2026-05-03 14:54 309K
20260503T12Z_MSC_RDPS_GeopotentialHeight_IsbL-0100_RLatLon0.09_PT006H.grib2 2026-05-03 14:54 288K
20260503T12Z_MSC_RDPS_GeopotentialHeight_IsbL-0150_RLatLon0.09_PT006H.grib2 2026-05-03 14:54 231K
20260503T12Z_MSC_RDPS_GeopotentialHeight_IsbL-0175_RLatLon0.09_PT006H.grib2 2026-05-03 14:54 234K
20260503T12Z_MSC_RDPS_GeopotentialHeight_IsbL-0200_RLatLon0.09_PT006H.grib2 2026-05-03 14:54 266K
20260503T12Z_MSC_RDPS_GeopotentialHeight_IsbL-0225_RLatLon0.09_PT006H.grib2 2026-05-03 14:54 267K
20260503T12Z_MSC_RDPS_GeopotentialHeight_IsbL-0250_RLatLon0.09_PT006H.grib2 2026-05-03 14:54 267K
20260503T12Z_MSC_RDPS_GeopotentialHeight_IsbL-0275_RLatLon0.09_PT006H.grib2 2026-05-03 14:54 237K
20260503T12Z_MSC_RDPS_GeopotentialHeight_IsbL-0300_RLatLon0.09_PT006H.grib2 2026-05-03 14:54 236K
20260503T12Z_MSC_RDPS_GeopotentialHeight_IsbL-0350_RLatLon0.09_PT006H.grib2 2026-05-03 14:54 232K
20260503T12Z_MSC_RDPS_GeopotentialHeight_IsbL-0400_RLatLon0.09_PT006H.grib2 2026-05-03 14:54 229K
20260503T12Z_MSC_RDPS_GeopotentialHeight_IsbL-0450_RLatLon0.09_PT006H.grib2 2026-05-03 14:54 298K
20260503T12Z_MSC_RDPS_GeopotentialHeight_IsbL-0500_RLatLon0.09_PT006H.grib2 2026-05-03 14:54 293K
20260503T12Z_MSC_RDPS_GeopotentialHeight_IsbL-0550_RLatLon0.09_PT006H.grib2 2026-05-03 14:54 290K
20260503T12Z_MSC_RDPS_GeopotentialHeight_IsbL-0600_RLatLon0.09_PT006H.grib2 2026-05-03 14:54 286K
20260503T12Z_MSC_RDPS_GeopotentialHeight_IsbL-0650_RLatLon0.09_PT006H.grib2 2026-05-03 14:54 258K
20260503T12Z_MSC_RDPS_GeopotentialHeight_IsbL-0700_RLatLon0.09_PT006H.grib2 2026-05-03 14:54 258K
20260503T12Z_MSC_RDPS_GeopotentialHeight_IsbL-0750_RLatLon0.09_PT006H.grib2 2026-05-03 14:54 345K
20260503T12Z_MSC_RDPS_GeopotentialHeight_IsbL-0800_RLatLon0.09_PT006H.grib2 2026-05-03 14:54 354K
20260503T12Z_MSC_RDPS_GeopotentialHeight_IsbL-0850_RLatLon0.09_PT006H.grib2 2026-05-03 14:54 361K
20260503T12Z_MSC_RDPS_GeopotentialHeight_IsbL-0875_RLatLon0.09_PT006H.grib2 2026-05-03 14:54 361K
20260503T12Z_MSC_RDPS_GeopotentialHeight_IsbL-0900_RLatLon0.09_PT006H.grib2 2026-05-03 14:54 367K
20260503T12Z_MSC_RDPS_GeopotentialHeight_IsbL-0925_RLatLon0.09_PT006H.grib2 2026-05-03 14:54 370K
20260503T12Z_MSC_RDPS_GeopotentialHeight_IsbL-0950_RLatLon0.09_PT006H.grib2 2026-05-03 14:54 374K
20260503T12Z_MSC_RDPS_GeopotentialHeight_IsbL-0970_RLatLon0.09_PT006H.grib2 2026-05-03 14:54 381K
20260503T12Z_MSC_RDPS_GeopotentialHeight_IsbL-0985_RLatLon0.09_PT006H.grib2 2026-05-03 14:54 390K
20260503T12Z_MSC_RDPS_GeopotentialHeight_IsbL-1000_RLatLon0.09_PT006H.grib2 2026-05-03 14:54 402K
20260503T12Z_MSC_RDPS_GeopotentialHeight_IsbL-1015_RLatLon0.09_PT006H.grib2 2026-05-03 14:54 418K
20260503T12Z_MSC_RDPS_Humidex_Sfc_RLatLon0.09_PT006H.grib2 2026-05-03 14:54 2.4M
20260503T12Z_MSC_RDPS_IcePellets-Accum1h_Sfc_RLatLon0.09_PT006H.grib2 2026-05-03 14:54 2.2K
20260503T12Z_MSC_RDPS_IcePellets-Accum3h_Sfc_RLatLon0.09_PT006H.grib2 2026-05-03 14:54 2.4K
20260503T12Z_MSC_RDPS_IcePellets-Accum6h_Sfc_RLatLon0.09_PT006H.grib2 2026-05-03 14:54 4.2K
20260503T12Z_MSC_RDPS_IcePellets-Accum_Sfc_RLatLon0.09_PT006H.grib2 2026-05-03 14:54 4.3K
20260503T12Z_MSC_RDPS_KIndex_Sfc_RLatLon0.09_PT006H.grib2 2026-05-03 14:54 2.4M
20260503T12Z_MSC_RDPS_LatentHeatNetFlux_Sfc_RLatLon0.09_PT006H.grib2 2026-05-03 14:54 314K
20260503T12Z_MSC_RDPS_LiftedIndex-MU-VT_IsbL-0500_RLatLon0.09_PT006H.grib2 2026-05-03 14:54 2.4M
20260503T12Z_MSC_RDPS_NetLongwaveRadiationFlux-Accum_Sfc_RLatLon0.09_PT006H.grib2 2026-05-03 14:54 563K
20260503T12Z_MSC_RDPS_NetShortwaveRadiationFlux-Accum_Sfc_RLatLon0.09_PT006H.grib2 2026-05-03 14:54 573K
20260503T12Z_MSC_RDPS_PlanetaryBoundaryLayerHeight_Sfc_RLatLon0.09_PT006H.grib2 2026-05-03 14:54 1.0M
20260503T12Z_MSC_RDPS_Precip-Accum1h_Sfc_RLatLon0.09_PT006H.grib2 2026-05-03 14:54 1.3M
20260503T12Z_MSC_RDPS_Precip-Accum3h_Sfc_RLatLon0.09_PT006H.grib2 2026-05-03 14:54 1.4M
20260503T12Z_MSC_RDPS_Precip-Accum6h_Sfc_RLatLon0.09_PT006H.grib2 2026-05-03 14:54 1.5M
20260503T12Z_MSC_RDPS_Precip-Accum_Sfc_RLatLon0.09_PT006H.grib2 2026-05-03 14:54 1.5M
20260503T12Z_MSC_RDPS_PrecipRate_Sfc_RLatLon0.09_PT006H.grib2 2026-05-03 14:54 184K
20260503T12Z_MSC_RDPS_PrecipType-Instant_Sfc_RLatLon0.09_PT006H.grib2 2026-05-03 14:54 592K
20260503T12Z_MSC_RDPS_Pressure-Trend3h_Sfc_RLatLon0.09_PT006H.grib2 2026-05-03 14:54 1.2M
20260503T12Z_MSC_RDPS_Pressure_MSL_RLatLon0.09_PT006H.grib2 2026-05-03 14:54 332K
20260503T12Z_MSC_RDPS_Pressure_PVU-1.5_RLatLon0.09_PT006H.grib2 2026-05-03 14:54 2.3M
20260503T12Z_MSC_RDPS_Pressure_PVU-1_RLatLon0.09_PT006H.grib2 2026-05-03 14:54 2.4M
20260503T12Z_MSC_RDPS_Pressure_PVU-2_RLatLon0.09_PT006H.grib2 2026-05-03 14:54 2.4M
20260503T12Z_MSC_RDPS_Pressure_Sfc_RLatLon0.09_PT006H.grib2 2026-05-03 14:54 500K
20260503T12Z_MSC_RDPS_RadiativeTemp_Sfc_RLatLon0.09_PT006H.grib2 2026-05-03 14:54 327K
20260503T12Z_MSC_RDPS_Rain-Accum1h_Sfc_RLatLon0.09_PT006H.grib2 2026-05-03 14:54 648K
20260503T12Z_MSC_RDPS_Rain-Accum3h_Sfc_RLatLon0.09_PT006H.grib2 2026-05-03 14:54 742K
20260503T12Z_MSC_RDPS_Rain-Accum6h_Sfc_RLatLon0.09_PT006H.grib2 2026-05-03 14:54 1.0M
20260503T12Z_MSC_RDPS_Rain-Accum_Sfc_RLatLon0.09_PT006H.grib2 2026-05-03 14:54 1.1M
20260503T12Z_MSC_RDPS_RelativeHumidity_AGL-2m_RLatLon0.09_PT006H.grib2 2026-05-03 14:54 1.0M
20260503T12Z_MSC_RDPS_RelativeHumidity_IsbL-0010_RLatLon0.09_PT006H.grib2 2026-05-03 14:54 628K
20260503T12Z_MSC_RDPS_RelativeHumidity_IsbL-0020_RLatLon0.09_PT006H.grib2 2026-05-03 14:54 669K
20260503T12Z_MSC_RDPS_RelativeHumidity_IsbL-0030_RLatLon0.09_PT006H.grib2 2026-05-03 14:54 599K
20260503T12Z_MSC_RDPS_RelativeHumidity_IsbL-0050_RLatLon0.09_PT006H.grib2 2026-05-03 14:54 302K
20260503T12Z_MSC_RDPS_RelativeHumidity_IsbL-0100_RLatLon0.09_PT006H.grib2 2026-05-03 14:54 276K
20260503T12Z_MSC_RDPS_RelativeHumidity_IsbL-0150_RLatLon0.09_PT006H.grib2 2026-05-03 14:54 418K
20260503T12Z_MSC_RDPS_RelativeHumidity_IsbL-0175_RLatLon0.09_PT006H.grib2 2026-05-03 14:54 480K
20260503T12Z_MSC_RDPS_RelativeHumidity_IsbL-0200_RLatLon0.09_PT006H.grib2 2026-05-03 14:54 555K
20260503T12Z_MSC_RDPS_RelativeHumidity_IsbL-0225_RLatLon0.09_PT006H.grib2 2026-05-03 14:54 622K
20260503T12Z_MSC_RDPS_RelativeHumidity_IsbL-0250_RLatLon0.09_PT006H.grib2 2026-05-03 14:54 683K
20260503T12Z_MSC_RDPS_RelativeHumidity_IsbL-0275_RLatLon0.09_PT006H.grib2 2026-05-03 14:54 708K
20260503T12Z_MSC_RDPS_RelativeHumidity_IsbL-0300_RLatLon0.09_PT006H.grib2 2026-05-03 14:54 746K
20260503T12Z_MSC_RDPS_RelativeHumidity_IsbL-0350_RLatLon0.09_PT006H.grib2 2026-05-03 14:54 770K
20260503T12Z_MSC_RDPS_RelativeHumidity_IsbL-0400_RLatLon0.09_PT006H.grib2 2026-05-03 14:54 781K
20260503T12Z_MSC_RDPS_RelativeHumidity_IsbL-0450_RLatLon0.09_PT006H.grib2 2026-05-03 14:54 784K
20260503T12Z_MSC_RDPS_RelativeHumidity_IsbL-0500_RLatLon0.09_PT006H.grib2 2026-05-03 14:54 800K
20260503T12Z_MSC_RDPS_RelativeHumidity_IsbL-0550_RLatLon0.09_PT006H.grib2 2026-05-03 14:54 817K
20260503T12Z_MSC_RDPS_RelativeHumidity_IsbL-0600_RLatLon0.09_PT006H.grib2 2026-05-03 14:54 836K
20260503T12Z_MSC_RDPS_RelativeHumidity_IsbL-0650_RLatLon0.09_PT006H.grib2 2026-05-03 14:54 850K
20260503T12Z_MSC_RDPS_RelativeHumidity_IsbL-0700_RLatLon0.09_PT006H.grib2 2026-05-03 14:54 878K
20260503T12Z_MSC_RDPS_RelativeHumidity_IsbL-0750_RLatLon0.09_PT006H.grib2 2026-05-03 14:54 924K
20260503T12Z_MSC_RDPS_RelativeHumidity_IsbL-0800_RLatLon0.09_PT006H.grib2 2026-05-03 14:54 1.0M
20260503T12Z_MSC_RDPS_RelativeHumidity_IsbL-0850_RLatLon0.09_PT006H.grib2 2026-05-03 14:54 1.0M
20260503T12Z_MSC_RDPS_RelativeHumidity_IsbL-0875_RLatLon0.09_PT006H.grib2 2026-05-03 14:54 1.1M
20260503T12Z_MSC_RDPS_RelativeHumidity_IsbL-0900_RLatLon0.09_PT006H.grib2 2026-05-03 14:54 1.1M
20260503T12Z_MSC_RDPS_RelativeHumidity_IsbL-0925_RLatLon0.09_PT006H.grib2 2026-05-03 14:54 1.1M
20260503T12Z_MSC_RDPS_RelativeHumidity_IsbL-0950_RLatLon0.09_PT006H.grib2 2026-05-03 14:54 1.1M
20260503T12Z_MSC_RDPS_RelativeHumidity_IsbL-0970_RLatLon0.09_PT006H.grib2 2026-05-03 14:54 1.0M
20260503T12Z_MSC_RDPS_RelativeHumidity_IsbL-0985_RLatLon0.09_PT006H.grib2 2026-05-03 14:54 1.0M
20260503T12Z_MSC_RDPS_RelativeHumidity_IsbL-1000_RLatLon0.09_PT006H.grib2 2026-05-03 14:54 1.0M
20260503T12Z_MSC_RDPS_RelativeHumidity_IsbL-1015_RLatLon0.09_PT006H.grib2 2026-05-03 14:54 1.0M
20260503T12Z_MSC_RDPS_Runoff-Accum_Sfc_RLatLon0.09_PT006H.grib2 2026-05-03 14:54 45K
20260503T12Z_MSC_RDPS_SWEATIndex_Sfc_RLatLon0.09_PT006H.grib2 2026-05-03 14:54 2.5M
20260503T12Z_MSC_RDPS_SeeingIndex_EAtm_RLatLon0.09_PT006H.grib2 2026-05-03 14:54 1.0M
20260503T12Z_MSC_RDPS_SensibleHeatNetFlux_Sfc_RLatLon0.09_PT006H.grib2 2026-05-03 14:54 369K
20260503T12Z_MSC_RDPS_ShowalterIndex_IsbL-0500_RLatLon0.09_PT006H.grib2 2026-05-03 14:54 2.6M
20260503T12Z_MSC_RDPS_SkyTransparencyIndex_EAtm_RLatLon0.09_PT006H.grib2 2026-05-03 14:54 723K
20260503T12Z_MSC_RDPS_Snow-Accum1h_Sfc_RLatLon0.09_PT006H.grib2 2026-05-03 14:54 491K
20260503T12Z_MSC_RDPS_Snow-Accum3h_Sfc_RLatLon0.09_PT006H.grib2 2026-05-03 14:54 424K
20260503T12Z_MSC_RDPS_Snow-Accum6h_Sfc_RLatLon0.09_PT006H.grib2 2026-05-03 14:54 514K
20260503T12Z_MSC_RDPS_Snow-Accum_Sfc_RLatLon0.09_PT006H.grib2 2026-05-03 14:54 562K
20260503T12Z_MSC_RDPS_SnowDensity_Sfc_RLatLon0.09_PT006H.grib2 2026-05-03 14:54 164K
20260503T12Z_MSC_RDPS_SnowDepth_Sfc_RLatLon0.09_PT006H.grib2 2026-05-03 14:54 643K
20260503T12Z_MSC_RDPS_SoilTemp_DBS-0to10cm_RLatLon0.09_PT006H.grib2 2026-05-03 14:54 206K
20260503T12Z_MSC_RDPS_SoilTemp_Sfc_RLatLon0.09_PT006H.grib2 2026-05-03 14:54 296K
20260503T12Z_MSC_RDPS_SoilVolumetricIceContent_Sfc_RLatLon0.09_PT006H.grib2 2026-05-03 14:54 157K
20260503T12Z_MSC_RDPS_SoilVolumetricWaterContent_DBS-0to10cm_RLatLon0.09_PT006H.grib2 2026-05-03 14:54 273K
20260503T12Z_MSC_RDPS_SoilVolumetricWaterContent_DBS-0to1cm_RLatLon0.09_PT006H.grib2 2026-05-03 14:54 334K
20260503T12Z_MSC_RDPS_SpecificHumidity_AGL-120m_RLatLon0.09_PT006H.grib2 2026-05-03 14:54 498K
20260503T12Z_MSC_RDPS_SpecificHumidity_AGL-2m_RLatLon0.09_PT006H.grib2 2026-05-03 14:54 667K
20260503T12Z_MSC_RDPS_SpecificHumidity_AGL-40m_RLatLon0.09_PT006H.grib2 2026-05-03 14:54 503K
20260503T12Z_MSC_RDPS_SpecificHumidity_AGL-80m_RLatLon0.09_PT006H.grib2 2026-05-03 14:54 500K
20260503T12Z_MSC_RDPS_SpecificHumidity_IsbL-0001_RLatLon0.09_PT006H.grib2 2026-05-03 14:54 401K
20260503T12Z_MSC_RDPS_SpecificHumidity_IsbL-0005_RLatLon0.09_PT006H.grib2 2026-05-03 14:54 362K
20260503T12Z_MSC_RDPS_SpecificHumidity_IsbL-0010_RLatLon0.09_PT006H.grib2 2026-05-03 14:54 394K
20260503T12Z_MSC_RDPS_SpecificHumidity_IsbL-0020_RLatLon0.09_PT006H.grib2 2026-05-03 14:54 379K
20260503T12Z_MSC_RDPS_SpecificHumidity_IsbL-0030_RLatLon0.09_PT006H.grib2 2026-05-03 14:54 373K
20260503T12Z_MSC_RDPS_SpecificHumidity_IsbL-0050_RLatLon0.09_PT006H.grib2 2026-05-03 14:54 487K
20260503T12Z_MSC_RDPS_SpecificHumidity_IsbL-0100_RLatLon0.09_PT006H.grib2 2026-05-03 14:54 417K
20260503T12Z_MSC_RDPS_SpecificHumidity_IsbL-0150_RLatLon0.09_PT006H.grib2 2026-05-03 14:54 457K
20260503T12Z_MSC_RDPS_SpecificHumidity_IsbL-0175_RLatLon0.09_PT006H.grib2 2026-05-03 14:54 445K
20260503T12Z_MSC_RDPS_SpecificHumidity_IsbL-0200_RLatLon0.09_PT006H.grib2 2026-05-03 14:54 459K
20260503T12Z_MSC_RDPS_SpecificHumidity_IsbL-0225_RLatLon0.09_PT006H.grib2 2026-05-03 14:54 461K
20260503T12Z_MSC_RDPS_SpecificHumidity_IsbL-0250_RLatLon0.09_PT006H.grib2 2026-05-03 14:54 563K
20260503T12Z_MSC_RDPS_SpecificHumidity_IsbL-0275_RLatLon0.09_PT006H.grib2 2026-05-03 14:54 479K
20260503T12Z_MSC_RDPS_SpecificHumidity_IsbL-0300_RLatLon0.09_PT006H.grib2 2026-05-03 14:54 547K
20260503T12Z_MSC_RDPS_SpecificHumidity_IsbL-0350_RLatLon0.09_PT006H.grib2 2026-05-03 14:54 543K
20260503T12Z_MSC_RDPS_SpecificHumidity_IsbL-0400_RLatLon0.09_PT006H.grib2 2026-05-03 14:54 520K
20260503T12Z_MSC_RDPS_SpecificHumidity_IsbL-0450_RLatLon0.09_PT006H.grib2 2026-05-03 14:54 568K
20260503T12Z_MSC_RDPS_SpecificHumidity_IsbL-0500_RLatLon0.09_PT006H.grib2 2026-05-03 14:54 501K
20260503T12Z_MSC_RDPS_SpecificHumidity_IsbL-0550_RLatLon0.09_PT006H.grib2 2026-05-03 14:54 573K
20260503T12Z_MSC_RDPS_SpecificHumidity_IsbL-0600_RLatLon0.09_PT006H.grib2 2026-05-03 14:54 623K
20260503T12Z_MSC_RDPS_SpecificHumidity_IsbL-0650_RLatLon0.09_PT006H.grib2 2026-05-03 14:54 542K
20260503T12Z_MSC_RDPS_SpecificHumidity_IsbL-0700_RLatLon0.09_PT006H.grib2 2026-05-03 14:54 589K
20260503T12Z_MSC_RDPS_SpecificHumidity_IsbL-0750_RLatLon0.09_PT006H.grib2 2026-05-03 14:54 648K
20260503T12Z_MSC_RDPS_SpecificHumidity_IsbL-0800_RLatLon0.09_PT006H.grib2 2026-05-03 14:54 738K
20260503T12Z_MSC_RDPS_SpecificHumidity_IsbL-0850_RLatLon0.09_PT006H.grib2 2026-05-03 14:54 817K
20260503T12Z_MSC_RDPS_SpecificHumidity_IsbL-0875_RLatLon0.09_PT006H.grib2 2026-05-03 14:54 701K
20260503T12Z_MSC_RDPS_SpecificHumidity_IsbL-0900_RLatLon0.09_PT006H.grib2 2026-05-03 14:54 710K
20260503T12Z_MSC_RDPS_SpecificHumidity_IsbL-0925_RLatLon0.09_PT006H.grib2 2026-05-03 14:54 709K
20260503T12Z_MSC_RDPS_SpecificHumidity_IsbL-0950_RLatLon0.09_PT006H.grib2 2026-05-03 14:54 713K
20260503T12Z_MSC_RDPS_SpecificHumidity_IsbL-0970_RLatLon0.09_PT006H.grib2 2026-05-03 14:54 707K
20260503T12Z_MSC_RDPS_SpecificHumidity_IsbL-0985_RLatLon0.09_PT006H.grib2 2026-05-03 14:54 701K
20260503T12Z_MSC_RDPS_SpecificHumidity_IsbL-1000_RLatLon0.09_PT006H.grib2 2026-05-03 14:54 693K
20260503T12Z_MSC_RDPS_SpecificHumidity_IsbL-1015_RLatLon0.09_PT006H.grib2 2026-05-03 14:54 682K
20260503T12Z_MSC_RDPS_SpecificHumidity_Sfc_RLatLon0.09_PT006H.grib2 2026-05-03 14:54 341K
20260503T12Z_MSC_RDPS_StormRelativeHelicity_EtaL-10000_RLatLon0.09_PT006H.grib2 2026-05-03 14:54 1.0M
20260503T12Z_MSC_RDPS_StormSeverityIndex_EtaL-10000_RLatLon0.09_PT006H.grib2 2026-05-03 14:54 1.2M
20260503T12Z_MSC_RDPS_Thickness_IsbL-0850to0700_RLatLon0.09_PT006H.grib2 2026-05-03 14:54 178K
20260503T12Z_MSC_RDPS_Thickness_IsbL-1000to0500_RLatLon0.09_PT006H.grib2 2026-05-03 14:54 199K
20260503T12Z_MSC_RDPS_Thickness_IsbL-1000to0850_RLatLon0.09_PT006H.grib2 2026-05-03 14:54 267K
20260503T12Z_MSC_RDPS_TotalCloudCover_Sfc_RLatLon0.09_PT006H.grib2 2026-05-03 14:54 655K
20260503T12Z_MSC_RDPS_TotalTotalsIndex_Sfc_RLatLon0.09_PT006H.grib2 2026-05-03 14:54 2.4M
20260503T12Z_MSC_RDPS_UVIndex-ClearSky-Max24h_Sfc_RLatLon0.09_PT006H.grib2 2026-05-03 14:54 289K
20260503T12Z_MSC_RDPS_UVIndex-ClearSky_Sfc_RLatLon0.09_PT006H.grib2 2026-05-03 14:54 229K
20260503T12Z_MSC_RDPS_UVIndex-Max24h_Sfc_RLatLon0.09_PT006H.grib2 2026-05-03 14:54 654K
20260503T12Z_MSC_RDPS_UVIndex_Sfc_RLatLon0.09_PT006H.grib2 2026-05-03 14:54 532K
20260503T12Z_MSC_RDPS_UpwardLongwaveRadiationFlux_NTAtm_RLatLon0.09_PT006H.grib2 2026-05-03 14:54 502K
20260503T12Z_MSC_RDPS_UpwardShortwaveRadiationFlux_NTAtm_RLatLon0.09_PT006H.grib2 2026-05-03 14:54 564K
20260503T12Z_MSC_RDPS_VerticalVelocity_IsbL-0250_RLatLon0.09_PT006H.grib2 2026-05-03 14:54 554K
20260503T12Z_MSC_RDPS_VerticalVelocity_IsbL-0500_RLatLon0.09_PT006H.grib2 2026-05-03 14:54 678K
20260503T12Z_MSC_RDPS_VerticalVelocity_IsbL-0700_RLatLon0.09_PT006H.grib2 2026-05-03 14:54 601K
20260503T12Z_MSC_RDPS_VerticalVelocity_IsbL-0850_RLatLon0.09_PT006H.grib2 2026-05-03 14:54 715K
20260503T12Z_MSC_RDPS_VerticalWindShear_EtaL-6500_RLatLon0.09_PT006H.grib2 2026-05-03 14:54 1.2M
20260503T12Z_MSC_RDPS_WindChill_Sfc_RLatLon0.09_PT006H.grib2 2026-05-03 14:54 1.1M
20260503T12Z_MSC_RDPS_WindDir_AGL-10m_RLatLon0.09_PT006H.grib2 2026-05-03 14:54 964K
20260503T12Z_MSC_RDPS_WindDir_AGL-120m_RLatLon0.09_PT006H.grib2 2026-05-03 14:54 612K
20260503T12Z_MSC_RDPS_WindDir_AGL-40m_RLatLon0.09_PT006H.grib2 2026-05-03 14:54 632K
20260503T12Z_MSC_RDPS_WindDir_AGL-80m_RLatLon0.09_PT006H.grib2 2026-05-03 14:54 620K
20260503T12Z_MSC_RDPS_WindDir_IsbL-0001_RLatLon0.09_PT006H.grib2 2026-05-03 14:54 296K
20260503T12Z_MSC_RDPS_WindDir_IsbL-0005_RLatLon0.09_PT006H.grib2 2026-05-03 14:54 365K
20260503T12Z_MSC_RDPS_WindDir_IsbL-0010_RLatLon0.09_PT006H.grib2 2026-05-03 14:54 366K
20260503T12Z_MSC_RDPS_WindDir_IsbL-0020_RLatLon0.09_PT006H.grib2 2026-05-03 14:54 407K
20260503T12Z_MSC_RDPS_WindDir_IsbL-0030_RLatLon0.09_PT006H.grib2 2026-05-03 14:54 406K
20260503T12Z_MSC_RDPS_WindDir_IsbL-0050_RLatLon0.09_PT006H.grib2 2026-05-03 14:54 410K
20260503T12Z_MSC_RDPS_WindDir_IsbL-0100_RLatLon0.09_PT006H.grib2 2026-05-03 14:54 408K
20260503T12Z_MSC_RDPS_WindDir_IsbL-0150_RLatLon0.09_PT006H.grib2 2026-05-03 14:54 415K
20260503T12Z_MSC_RDPS_WindDir_IsbL-0175_RLatLon0.09_PT006H.grib2 2026-05-03 14:54 432K
20260503T12Z_MSC_RDPS_WindDir_IsbL-0200_RLatLon0.09_PT006H.grib2 2026-05-03 14:54 450K
20260503T12Z_MSC_RDPS_WindDir_IsbL-0225_RLatLon0.09_PT006H.grib2 2026-05-03 14:54 458K
20260503T12Z_MSC_RDPS_WindDir_IsbL-0250_RLatLon0.09_PT006H.grib2 2026-05-03 14:54 459K
20260503T12Z_MSC_RDPS_WindDir_IsbL-0275_RLatLon0.09_PT006H.grib2 2026-05-03 14:54 480K
20260503T12Z_MSC_RDPS_WindDir_IsbL-0300_RLatLon0.09_PT006H.grib2 2026-05-03 14:54 479K
20260503T12Z_MSC_RDPS_WindDir_IsbL-0350_RLatLon0.09_PT006H.grib2 2026-05-03 14:54 500K
20260503T12Z_MSC_RDPS_WindDir_IsbL-0400_RLatLon0.09_PT006H.grib2 2026-05-03 14:54 516K
20260503T12Z_MSC_RDPS_WindDir_IsbL-0450_RLatLon0.09_PT006H.grib2 2026-05-03 14:54 525K
20260503T12Z_MSC_RDPS_WindDir_IsbL-0500_RLatLon0.09_PT006H.grib2 2026-05-03 14:54 531K
20260503T12Z_MSC_RDPS_WindDir_IsbL-0550_RLatLon0.09_PT006H.grib2 2026-05-03 14:54 544K
20260503T12Z_MSC_RDPS_WindDir_IsbL-0600_RLatLon0.09_PT006H.grib2 2026-05-03 14:54 568K
20260503T12Z_MSC_RDPS_WindDir_IsbL-0650_RLatLon0.09_PT006H.grib2 2026-05-03 14:54 610K
20260503T12Z_MSC_RDPS_WindDir_IsbL-0700_RLatLon0.09_PT006H.grib2 2026-05-03 14:54 655K
20260503T12Z_MSC_RDPS_WindDir_IsbL-0750_RLatLon0.09_PT006H.grib2 2026-05-03 14:54 704K
20260503T12Z_MSC_RDPS_WindDir_IsbL-0800_RLatLon0.09_PT006H.grib2 2026-05-03 14:54 772K
20260503T12Z_MSC_RDPS_WindDir_IsbL-0850_RLatLon0.09_PT006H.grib2 2026-05-03 14:54 859K
20260503T12Z_MSC_RDPS_WindDir_IsbL-0875_RLatLon0.09_PT006H.grib2 2026-05-03 14:54 889K
20260503T12Z_MSC_RDPS_WindDir_IsbL-0900_RLatLon0.09_PT006H.grib2 2026-05-03 14:54 900K
20260503T12Z_MSC_RDPS_WindDir_IsbL-0925_RLatLon0.09_PT006H.grib2 2026-05-03 14:54 906K
20260503T12Z_MSC_RDPS_WindDir_IsbL-0950_RLatLon0.09_PT006H.grib2 2026-05-03 14:54 908K
20260503T12Z_MSC_RDPS_WindDir_IsbL-0970_RLatLon0.09_PT006H.grib2 2026-05-03 14:54 916K
20260503T12Z_MSC_RDPS_WindDir_IsbL-0985_RLatLon0.09_PT006H.grib2 2026-05-03 14:54 926K
20260503T12Z_MSC_RDPS_WindDir_IsbL-1000_RLatLon0.09_PT006H.grib2 2026-05-03 14:54 939K
20260503T12Z_MSC_RDPS_WindDir_IsbL-1015_RLatLon0.09_PT006H.grib2 2026-05-03 14:54 956K
20260503T12Z_MSC_RDPS_WindGust-Max_AGL-10m_RLatLon0.09_PT006H.grib2 2026-05-03 14:54 1.0M
20260503T12Z_MSC_RDPS_WindGust-Min_AGL-10m_RLatLon0.09_PT006H.grib2 2026-05-03 14:54 1.0M
20260503T12Z_MSC_RDPS_WindGust_AGL-10m_RLatLon0.09_PT006H.grib2 2026-05-03 14:54 1.0M
20260503T12Z_MSC_RDPS_WindSpeed_AGL-10m_RLatLon0.09_PT006H.grib2 2026-05-03 14:54 842K
20260503T12Z_MSC_RDPS_WindSpeed_AGL-120m_RLatLon0.09_PT006H.grib2 2026-05-03 14:54 536K
20260503T12Z_MSC_RDPS_WindSpeed_AGL-40m_RLatLon0.09_PT006H.grib2 2026-05-03 14:54 541K
20260503T12Z_MSC_RDPS_WindSpeed_AGL-80m_RLatLon0.09_PT006H.grib2 2026-05-03 14:54 537K
20260503T12Z_MSC_RDPS_WindSpeed_IsbL-0001_RLatLon0.09_PT006H.grib2 2026-05-03 14:54 250K
20260503T12Z_MSC_RDPS_WindSpeed_IsbL-0005_RLatLon0.09_PT006H.grib2 2026-05-03 14:54 333K
20260503T12Z_MSC_RDPS_WindSpeed_IsbL-0010_RLatLon0.09_PT006H.grib2 2026-05-03 14:54 383K
20260503T12Z_MSC_RDPS_WindSpeed_IsbL-0020_RLatLon0.09_PT006H.grib2 2026-05-03 14:54 308K
20260503T12Z_MSC_RDPS_WindSpeed_IsbL-0030_RLatLon0.09_PT006H.grib2 2026-05-03 14:54 311K
20260503T12Z_MSC_RDPS_WindSpeed_IsbL-0050_RLatLon0.09_PT006H.grib2 2026-05-03 14:54 340K
20260503T12Z_MSC_RDPS_WindSpeed_IsbL-0100_RLatLon0.09_PT006H.grib2 2026-05-03 14:54 473K
20260503T12Z_MSC_RDPS_WindSpeed_IsbL-0150_RLatLon0.09_PT006H.grib2 2026-05-03 14:54 381K
20260503T12Z_MSC_RDPS_WindSpeed_IsbL-0175_RLatLon0.09_PT006H.grib2 2026-05-03 14:54 426K
20260503T12Z_MSC_RDPS_WindSpeed_IsbL-0200_RLatLon0.09_PT006H.grib2 2026-05-03 14:54 443K
20260503T12Z_MSC_RDPS_WindSpeed_IsbL-0225_RLatLon0.09_PT006H.grib2 2026-05-03 14:54 453K
20260503T12Z_MSC_RDPS_WindSpeed_IsbL-0250_RLatLon0.09_PT006H.grib2 2026-05-03 14:54 456K
20260503T12Z_MSC_RDPS_WindSpeed_IsbL-0275_RLatLon0.09_PT006H.grib2 2026-05-03 14:54 471K
20260503T12Z_MSC_RDPS_WindSpeed_IsbL-0300_RLatLon0.09_PT006H.grib2 2026-05-03 14:54 467K
20260503T12Z_MSC_RDPS_WindSpeed_IsbL-0350_RLatLon0.09_PT006H.grib2 2026-05-03 14:54 477K
20260503T12Z_MSC_RDPS_WindSpeed_IsbL-0400_RLatLon0.09_PT006H.grib2 2026-05-03 14:54 462K
20260503T12Z_MSC_RDPS_WindSpeed_IsbL-0450_RLatLon0.09_PT006H.grib2 2026-05-03 14:54 463K
20260503T12Z_MSC_RDPS_WindSpeed_IsbL-0500_RLatLon0.09_PT006H.grib2 2026-05-03 14:54 463K
20260503T12Z_MSC_RDPS_WindSpeed_IsbL-0550_RLatLon0.09_PT006H.grib2 2026-05-03 14:54 464K
20260503T12Z_MSC_RDPS_WindSpeed_IsbL-0600_RLatLon0.09_PT006H.grib2 2026-05-03 14:54 592K
20260503T12Z_MSC_RDPS_WindSpeed_IsbL-0650_RLatLon0.09_PT006H.grib2 2026-05-03 14:54 613K
20260503T12Z_MSC_RDPS_WindSpeed_IsbL-0700_RLatLon0.09_PT006H.grib2 2026-05-03 14:54 683K
20260503T12Z_MSC_RDPS_WindSpeed_IsbL-0750_RLatLon0.09_PT006H.grib2 2026-05-03 14:54 718K
20260503T12Z_MSC_RDPS_WindSpeed_IsbL-0800_RLatLon0.09_PT006H.grib2 2026-05-03 14:54 768K
20260503T12Z_MSC_RDPS_WindSpeed_IsbL-0850_RLatLon0.09_PT006H.grib2 2026-05-03 14:54 780K
20260503T12Z_MSC_RDPS_WindSpeed_IsbL-0875_RLatLon0.09_PT006H.grib2 2026-05-03 14:54 798K
20260503T12Z_MSC_RDPS_WindSpeed_IsbL-0900_RLatLon0.09_PT006H.grib2 2026-05-03 14:54 852K
20260503T12Z_MSC_RDPS_WindSpeed_IsbL-0925_RLatLon0.09_PT006H.grib2 2026-05-03 14:54 862K
20260503T12Z_MSC_RDPS_WindSpeed_IsbL-0950_RLatLon0.09_PT006H.grib2 2026-05-03 14:54 862K
20260503T12Z_MSC_RDPS_WindSpeed_IsbL-0970_RLatLon0.09_PT006H.grib2 2026-05-03 14:54 862K
20260503T12Z_MSC_RDPS_WindSpeed_IsbL-0985_RLatLon0.09_PT006H.grib2 2026-05-03 14:54 859K
20260503T12Z_MSC_RDPS_WindSpeed_IsbL-1000_RLatLon0.09_PT006H.grib2 2026-05-03 14:54 852K
20260503T12Z_MSC_RDPS_WindSpeed_IsbL-1015_RLatLon0.09_PT006H.grib2 2026-05-03 14:54 842K
20260503T12Z_MSC_RDPS_WindU_AGL-10m_RLatLon0.09_PT006H.grib2 2026-05-03 14:54 436K
20260503T12Z_MSC_RDPS_WindU_AGL-120m_RLatLon0.09_PT006H.grib2 2026-05-03 14:54 418K
20260503T12Z_MSC_RDPS_WindU_AGL-40m_RLatLon0.09_PT006H.grib2 2026-05-03 14:54 421K
20260503T12Z_MSC_RDPS_WindU_AGL-80m_RLatLon0.09_PT006H.grib2 2026-05-03 14:54 419K
20260503T12Z_MSC_RDPS_WindU_IsbL-0001_RLatLon0.09_PT006H.grib2 2026-05-03 14:54 289K
20260503T12Z_MSC_RDPS_WindU_IsbL-0005_RLatLon0.09_PT006H.grib2 2026-05-03 14:54 274K
20260503T12Z_MSC_RDPS_WindU_IsbL-0010_RLatLon0.09_PT006H.grib2 2026-05-03 14:54 285K
20260503T12Z_MSC_RDPS_WindU_IsbL-0020_RLatLon0.09_PT006H.grib2 2026-05-03 14:54 300K
20260503T12Z_MSC_RDPS_WindU_IsbL-0030_RLatLon0.09_PT006H.grib2 2026-05-03 14:54 344K
20260503T12Z_MSC_RDPS_WindU_IsbL-0050_RLatLon0.09_PT006H.grib2 2026-05-03 14:54 337K
20260503T12Z_MSC_RDPS_WindU_IsbL-0100_RLatLon0.09_PT006H.grib2 2026-05-03 14:54 428K
20260503T12Z_MSC_RDPS_WindU_IsbL-0150_RLatLon0.09_PT006H.grib2 2026-05-03 14:54 396K
20260503T12Z_MSC_RDPS_WindU_IsbL-0175_RLatLon0.09_PT006H.grib2 2026-05-03 14:54 417K
20260503T12Z_MSC_RDPS_WindU_IsbL-0200_RLatLon0.09_PT006H.grib2 2026-05-03 14:54 336K
20260503T12Z_MSC_RDPS_WindU_IsbL-0225_RLatLon0.09_PT006H.grib2 2026-05-03 14:54 344K
20260503T12Z_MSC_RDPS_WindU_IsbL-0250_RLatLon0.09_PT006H.grib2 2026-05-03 14:54 345K
20260503T12Z_MSC_RDPS_WindU_IsbL-0275_RLatLon0.09_PT006H.grib2 2026-05-03 14:54 359K
20260503T12Z_MSC_RDPS_WindU_IsbL-0300_RLatLon0.09_PT006H.grib2 2026-05-03 14:54 456K
20260503T12Z_MSC_RDPS_WindU_IsbL-0350_RLatLon0.09_PT006H.grib2 2026-05-03 14:54 464K
20260503T12Z_MSC_RDPS_WindU_IsbL-0400_RLatLon0.09_PT006H.grib2 2026-05-03 14:54 466K
20260503T12Z_MSC_RDPS_WindU_IsbL-0450_RLatLon0.09_PT006H.grib2 2026-05-03 14:54 467K
20260503T12Z_MSC_RDPS_WindU_IsbL-0500_RLatLon0.09_PT006H.grib2 2026-05-03 14:54 468K
20260503T12Z_MSC_RDPS_WindU_IsbL-0550_RLatLon0.09_PT006H.grib2 2026-05-03 14:54 453K
20260503T12Z_MSC_RDPS_WindU_IsbL-0600_RLatLon0.09_PT006H.grib2 2026-05-03 14:54 463K
20260503T12Z_MSC_RDPS_WindU_IsbL-0650_RLatLon0.09_PT006H.grib2 2026-05-03 14:54 499K
20260503T12Z_MSC_RDPS_WindU_IsbL-0700_RLatLon0.09_PT006H.grib2 2026-05-03 14:54 522K
20260503T12Z_MSC_RDPS_WindU_IsbL-0750_RLatLon0.09_PT006H.grib2 2026-05-03 14:54 551K
20260503T12Z_MSC_RDPS_WindU_IsbL-0800_RLatLon0.09_PT006H.grib2 2026-05-03 14:54 581K
20260503T12Z_MSC_RDPS_WindU_IsbL-0850_RLatLon0.09_PT006H.grib2 2026-05-03 14:54 641K
20260503T12Z_MSC_RDPS_WindU_IsbL-0875_RLatLon0.09_PT006H.grib2 2026-05-03 14:54 655K
20260503T12Z_MSC_RDPS_WindU_IsbL-0900_RLatLon0.09_PT006H.grib2 2026-05-03 14:54 659K
20260503T12Z_MSC_RDPS_WindU_IsbL-0925_RLatLon0.09_PT006H.grib2 2026-05-03 14:54 665K
20260503T12Z_MSC_RDPS_WindU_IsbL-0950_RLatLon0.09_PT006H.grib2 2026-05-03 14:54 662K
20260503T12Z_MSC_RDPS_WindU_IsbL-0970_RLatLon0.09_PT006H.grib2 2026-05-03 14:54 657K
20260503T12Z_MSC_RDPS_WindU_IsbL-0985_RLatLon0.09_PT006H.grib2 2026-05-03 14:54 655K
20260503T12Z_MSC_RDPS_WindU_IsbL-1000_RLatLon0.09_PT006H.grib2 2026-05-03 14:54 790K
20260503T12Z_MSC_RDPS_WindU_IsbL-1015_RLatLon0.09_PT006H.grib2 2026-05-03 14:54 784K
20260503T12Z_MSC_RDPS_WindV_AGL-10m_RLatLon0.09_PT006H.grib2 2026-05-03 14:54 435K
20260503T12Z_MSC_RDPS_WindV_AGL-120m_RLatLon0.09_PT006H.grib2 2026-05-03 14:54 417K
20260503T12Z_MSC_RDPS_WindV_AGL-40m_RLatLon0.09_PT006H.grib2 2026-05-03 14:54 537K
20260503T12Z_MSC_RDPS_WindV_AGL-80m_RLatLon0.09_PT006H.grib2 2026-05-03 14:54 535K
20260503T12Z_MSC_RDPS_WindV_IsbL-0001_RLatLon0.09_PT006H.grib2 2026-05-03 14:54 241K
20260503T12Z_MSC_RDPS_WindV_IsbL-0005_RLatLon0.09_PT006H.grib2 2026-05-03 14:54 275K
20260503T12Z_MSC_RDPS_WindV_IsbL-0010_RLatLon0.09_PT006H.grib2 2026-05-03 14:54 373K
20260503T12Z_MSC_RDPS_WindV_IsbL-0020_RLatLon0.09_PT006H.grib2 2026-05-03 14:54 303K
20260503T12Z_MSC_RDPS_WindV_IsbL-0030_RLatLon0.09_PT006H.grib2 2026-05-03 14:54 305K
20260503T12Z_MSC_RDPS_WindV_IsbL-0050_RLatLon0.09_PT006H.grib2 2026-05-03 14:54 332K
20260503T12Z_MSC_RDPS_WindV_IsbL-0100_RLatLon0.09_PT006H.grib2 2026-05-03 14:54 331K
20260503T12Z_MSC_RDPS_WindV_IsbL-0150_RLatLon0.09_PT006H.grib2 2026-05-03 14:54 397K
20260503T12Z_MSC_RDPS_WindV_IsbL-0175_RLatLon0.09_PT006H.grib2 2026-05-03 14:54 325K
20260503T12Z_MSC_RDPS_WindV_IsbL-0200_RLatLon0.09_PT006H.grib2 2026-05-03 14:54 338K
20260503T12Z_MSC_RDPS_WindV_IsbL-0225_RLatLon0.09_PT006H.grib2 2026-05-03 14:54 369K
20260503T12Z_MSC_RDPS_WindV_IsbL-0250_RLatLon0.09_PT006H.grib2 2026-05-03 14:54 372K
20260503T12Z_MSC_RDPS_WindV_IsbL-0275_RLatLon0.09_PT006H.grib2 2026-05-03 14:54 382K
20260503T12Z_MSC_RDPS_WindV_IsbL-0300_RLatLon0.09_PT006H.grib2 2026-05-03 14:54 378K
20260503T12Z_MSC_RDPS_WindV_IsbL-0350_RLatLon0.09_PT006H.grib2 2026-05-03 14:54 359K
20260503T12Z_MSC_RDPS_WindV_IsbL-0400_RLatLon0.09_PT006H.grib2 2026-05-03 14:54 362K
20260503T12Z_MSC_RDPS_WindV_IsbL-0450_RLatLon0.09_PT006H.grib2 2026-05-03 14:54 364K
20260503T12Z_MSC_RDPS_WindV_IsbL-0500_RLatLon0.09_PT006H.grib2 2026-05-03 14:54 468K
20260503T12Z_MSC_RDPS_WindV_IsbL-0550_RLatLon0.09_PT006H.grib2 2026-05-03 14:54 469K
20260503T12Z_MSC_RDPS_WindV_IsbL-0600_RLatLon0.09_PT006H.grib2 2026-05-03 14:54 477K
20260503T12Z_MSC_RDPS_WindV_IsbL-0650_RLatLon0.09_PT006H.grib2 2026-05-03 14:54 496K
20260503T12Z_MSC_RDPS_WindV_IsbL-0700_RLatLon0.09_PT006H.grib2 2026-05-03 14:54 520K
20260503T12Z_MSC_RDPS_WindV_IsbL-0750_RLatLon0.09_PT006H.grib2 2026-05-03 14:54 549K
20260503T12Z_MSC_RDPS_WindV_IsbL-0800_RLatLon0.09_PT006H.grib2 2026-05-03 14:54 591K
20260503T12Z_MSC_RDPS_WindV_IsbL-0850_RLatLon0.09_PT006H.grib2 2026-05-03 14:54 638K
20260503T12Z_MSC_RDPS_WindV_IsbL-0875_RLatLon0.09_PT006H.grib2 2026-05-03 14:54 653K
20260503T12Z_MSC_RDPS_WindV_IsbL-0900_RLatLon0.09_PT006H.grib2 2026-05-03 14:54 651K
20260503T12Z_MSC_RDPS_WindV_IsbL-0925_RLatLon0.09_PT006H.grib2 2026-05-03 14:54 658K
20260503T12Z_MSC_RDPS_WindV_IsbL-0950_RLatLon0.09_PT006H.grib2 2026-05-03 14:54 656K
20260503T12Z_MSC_RDPS_WindV_IsbL-0970_RLatLon0.09_PT006H.grib2 2026-05-03 14:54 657K
20260503T12Z_MSC_RDPS_WindV_IsbL-0985_RLatLon0.09_PT006H.grib2 2026-05-03 14:54 655K
20260503T12Z_MSC_RDPS_WindV_IsbL-1000_RLatLon0.09_PT006H.grib2 2026-05-03 14:54 789K
20260503T12Z_MSC_RDPS_WindV_IsbL-1015_RLatLon0.09_PT006H.grib2 2026-05-03 14:54 782K